CPA785 VHHH-WADD

Flight info

Callsign CPA785
Flight time N/A
Altitude 37000
Route DALOL V652 UNTUL/N0492F360 V652 SABNO/N0491F370 A583 AKOTA/N0494F360 M754 TENON/N0488F380 M754 VINIK M522 ELANG/N0493F370 M522 DOBMA
Aircraft B77W/H-SDE1E2E3FGHIJ2J3J4J5M1RWXY/LB1D1

Departure

Time N/A
Airport Hong Kong International Airport (VHHH)

Arrival

Time 2026-04-27 06:59
Airport Denpasar I Gusti Ngurah Rai International Airport (WADD)
Time Latitude Longitude Altitude Speed Heading
2026-04-27 04:59 5.59238 115.99095 36825 ft 486 kts 187°
2026-04-27 04:59 5.55878 115.98625 36822 ft 486 kts 187°
2026-04-27 05:00 5.49230 115.97694 36821 ft 485 kts 188°
2026-04-27 05:00 5.42547 115.96757 36829 ft 484 kts 188°
2026-04-27 05:01 5.39213 115.96289 37054 ft 483 kts 188°
2026-04-27 05:01 5.35876 115.95821 37298 ft 484 kts 188°
2026-04-27 05:01 5.32543 115.95354 37595 ft 484 kts 188°
2026-04-27 05:01 5.29207 115.94887 37791 ft 484 kts 188°
2026-04-27 05:02 5.22510 115.93950 37817 ft 485 kts 188°
2026-04-27 05:03 5.12503 115.92655 37848 ft 482 kts 187°
2026-04-27 05:03 5.05849 115.91805 37845 ft 480 kts 187°
2026-04-27 05:04 4.99265 115.90954 37850 ft 479 kts 187°
2026-04-27 05:04 4.92648 115.90098 37865 ft 479 kts 187°
2026-04-27 05:05 4.86031 115.89236 37869 ft 479 kts 188°
2026-04-27 05:05 4.79408 115.88335 37880 ft 480 kts 188°
2026-04-27 05:06 4.72779 115.87427 37893 ft 481 kts 188°
2026-04-27 05:06 4.66188 115.86529 37898 ft 481 kts 188°
2026-04-27 05:07 4.59553 115.85628 37900 ft 481 kts 187°
2026-04-27 05:07 4.52928 115.84729 37899 ft 480 kts 187°
2026-04-27 05:08 4.46308 115.83830 37910 ft 480 kts 187°
2026-04-27 05:08 4.39688 115.82932 37909 ft 480 kts 187°
2026-04-27 05:09 4.33062 115.82032 37924 ft 481 kts 187°
2026-04-27 05:09 4.26457 115.81137 37910 ft 482 kts 187°
2026-04-27 05:10 4.19808 115.80234 37917 ft 482 kts 187°
2026-04-27 05:10 4.13146 115.79330 37918 ft 482 kts 187°
2026-04-27 05:11 4.06500 115.78364 37908 ft 483 kts 189°
2026-04-27 05:11 3.99893 115.77121 37908 ft 484 kts 190°
2026-04-27 05:12 3.93278 115.75821 37907 ft 484 kts 190°
2026-04-27 05:12 3.86699 115.74544 37901 ft 484 kts 190°
2026-04-27 05:13 3.80073 115.73276 37908 ft 484 kts 189°
2026-04-27 05:13 3.74515 115.72217 37904 ft 484 kts 189°
2026-04-27 05:14 3.67895 115.70956 37919 ft 484 kts 189°
2026-04-27 05:14 3.61316 115.69703 37900 ft 484 kts 190°
2026-04-27 05:15 3.54702 115.68442 37923 ft 483 kts 189°
2026-04-27 05:15 3.48090 115.67183 37907 ft 483 kts 190°
2026-04-27 05:16 3.41476 115.65922 37899 ft 484 kts 189°
2026-04-27 05:16 3.34849 115.64659 37896 ft 485 kts 190°
2026-04-27 05:17 3.28214 115.63396 37888 ft 485 kts 189°
2026-04-27 05:17 3.21577 115.62132 37904 ft 486 kts 189°
2026-04-27 05:18 3.14930 115.60865 37886 ft 486 kts 189°
2026-04-27 05:18 3.08279 115.59599 37886 ft 487 kts 190°
2026-04-27 05:19 3.01666 115.58340 37889 ft 487 kts 190°
2026-04-27 05:19 2.94999 115.57070 37888 ft 487 kts 189°
2026-04-27 05:20 2.88338 115.55803 37886 ft 487 kts 190°
2026-04-27 05:20 2.81667 115.54533 37882 ft 488 kts 189°
2026-04-27 05:21 2.74991 115.53263 37885 ft 488 kts 189°
2026-04-27 05:21 2.68327 115.51994 37889 ft 487 kts 189°
2026-04-27 05:22 2.61679 115.50730 37877 ft 487 kts 189°
2026-04-27 05:22 2.55036 115.49466 37884 ft 485 kts 189°
2026-04-27 05:23 2.48445 115.48212 37879 ft 485 kts 189°
2026-04-27 05:23 2.41823 115.46953 37881 ft 484 kts 189°
2026-04-27 05:24 2.35200 115.45693 37877 ft 484 kts 189°
2026-04-27 05:24 2.28571 115.44433 37885 ft 485 kts 189°
2026-04-27 05:25 2.21934 115.43171 37875 ft 486 kts 189°
2026-04-27 05:25 2.15284 115.41906 37874 ft 486 kts 189°
2026-04-27 05:26 2.08675 115.40650 37871 ft 487 kts 189°
2026-04-27 05:26 2.02020 115.39384 37877 ft 487 kts 188°
2026-04-27 05:27 1.95358 115.38119 37876 ft 487 kts 188°
2026-04-27 05:27 1.88689 115.36849 37864 ft 487 kts 188°
2026-04-27 05:28 1.82020 115.35583 37871 ft 487 kts 188°
2026-04-27 05:28 1.75351 115.34316 37863 ft 487 kts 189°
2026-04-27 05:29 1.68741 115.33060 37871 ft 486 kts 189°
2026-04-27 05:29 1.62045 115.31789 37860 ft 486 kts 188°
2026-04-27 05:30 1.55435 115.30532 37856 ft 486 kts 188°
2026-04-27 05:30 1.48778 115.29267 37871 ft 486 kts 188°
2026-04-27 05:31 1.42118 115.28002 37856 ft 487 kts 188°
2026-04-27 05:31 1.35466 115.26739 37844 ft 487 kts 189°
2026-04-27 05:32 1.28845 115.25481 37856 ft 487 kts 189°
2026-04-27 05:32 1.22187 115.24216 37854 ft 487 kts 189°
2026-04-27 05:33 1.15534 115.22953 37849 ft 487 kts 189°
2026-04-27 05:33 1.08871 115.21687 37850 ft 487 kts 189°
2026-04-27 05:34 1.02207 115.20421 37852 ft 487 kts 189°
2026-04-27 05:34 0.95550 115.19157 37856 ft 486 kts 189°
2026-04-27 05:35 0.88906 115.17895 37857 ft 486 kts 189°
2026-04-27 05:35 0.82303 115.16641 37838 ft 485 kts 189°
2026-04-27 05:36 0.75674 115.15382 37842 ft 485 kts 189°
2026-04-27 05:36 0.69045 115.14124 37841 ft 485 kts 189°
2026-04-27 05:37 0.62418 115.12866 37835 ft 484 kts 189°
2026-04-27 05:37 0.55799 115.11609 37838 ft 484 kts 189°
2026-04-27 05:38 0.49186 115.10353 37837 ft 483 kts 189°
2026-04-27 05:38 0.42611 115.09105 37837 ft 483 kts 189°
2026-04-27 05:39 0.36005 115.07851 37841 ft 483 kts 189°
2026-04-27 05:39 0.29409 115.06598 37849 ft 483 kts 189°
2026-04-27 05:40 0.22804 115.05344 37839 ft 483 kts 189°
2026-04-27 05:40 0.16201 115.04091 37844 ft 483 kts 189°
2026-04-27 05:41 0.09591 115.02836 37842 ft 483 kts 189°
2026-04-27 05:41 0.02980 115.01581 37838 ft 483 kts 189°
2026-04-27 05:42 -0.03640 115.00323 37844 ft 484 kts 189°
2026-04-27 05:42 -0.10227 114.99073 37843 ft 484 kts 189°
2026-04-27 05:43 -0.16853 114.97815 37840 ft 484 kts 189°
2026-04-27 05:43 -0.23480 114.96556 37837 ft 484 kts 189°
2026-04-27 05:44 -0.30070 114.95304 37838 ft 484 kts 189°
2026-04-27 05:44 -0.36700 114.94045 37839 ft 484 kts 189°
2026-04-27 05:45 -0.43339 114.92783 37827 ft 484 kts 189°
2026-04-27 05:45 -0.49924 114.91531 37836 ft 484 kts 189°
2026-04-27 05:46 -0.56548 114.90272 37831 ft 484 kts 189°
2026-04-27 05:46 -0.63173 114.89013 37833 ft 484 kts 189°
2026-04-27 05:47 -0.69790 114.87756 37838 ft 484 kts 189°
2026-04-27 05:47 -0.76409 114.86497 37826 ft 483 kts 189°
2026-04-27 05:48 -0.83014 114.85242 37828 ft 482 kts 189°
2026-04-27 05:48 -0.89609 114.83991 37830 ft 482 kts 188°
2026-04-27 05:49 -0.96257 114.83416 37826 ft 479 kts 177°
2026-04-27 05:49 -1.02876 114.83649 37835 ft 478 kts 176°
2026-04-27 05:50 -1.09524 114.83909 37829 ft 478 kts 176°
2026-04-27 05:50 -1.16184 114.84141 37828 ft 479 kts 176°
2026-04-27 05:51 -1.22858 114.84356 37829 ft 479 kts 177°
2026-04-27 05:51 -1.29544 114.84565 37832 ft 480 kts 177°
2026-04-27 05:52 -1.36184 114.84773 37831 ft 480 kts 177°
2026-04-27 05:52 -1.42873 114.84983 37832 ft 481 kts 176°
2026-04-27 05:53 -1.49565 114.85195 37832 ft 481 kts 176°
2026-04-27 05:53 -1.56259 114.85406 37834 ft 481 kts 176°
2026-04-27 05:54 -1.62915 114.85617 37836 ft 481 kts 176°
2026-04-27 05:54 -1.69611 114.85828 37832 ft 481 kts 176°
2026-04-27 05:55 -1.76308 114.86039 37825 ft 482 kts 176°
2026-04-27 05:55 -1.83023 114.86252 37838 ft 483 kts 176°
2026-04-27 05:56 -1.89756 114.86465 37836 ft 485 kts 176°
2026-04-27 05:56 -1.96511 114.86678 37835 ft 486 kts 176°
2026-04-27 05:57 -2.03272 114.86892 37834 ft 487 kts 176°
2026-04-27 05:57 -2.10047 114.87105 37841 ft 486 kts 176°
2026-04-27 05:58 -2.16764 114.87317 37826 ft 484 kts 176°
2026-04-27 05:58 -2.23500 114.87530 37826 ft 482 kts 176°
2026-04-27 05:59 -2.30183 114.87741 37832 ft 480 kts 176°
2026-04-27 05:59 -2.36852 114.87952 37828 ft 478 kts 176°
2026-04-27 06:00 -2.46818 114.88267 37837 ft 477 kts 176°
2026-04-27 06:00 -2.53416 114.88476 37837 ft 476 kts 176°
2026-04-27 06:01 -2.58934 114.88651 37840 ft 477 kts 176°
2026-04-27 06:01 -2.66689 114.88896 37832 ft 477 kts 176°
2026-04-27 06:02 -2.72212 114.89071 37832 ft 478 kts 176°
2026-04-27 06:02 -2.79991 114.89317 37841 ft 479 kts 176°
2026-04-27 06:03 -2.85530 114.89492 37832 ft 479 kts 176°
2026-04-27 06:03 -2.92206 114.89703 37833 ft 480 kts 176°
2026-04-27 06:04 -2.98840 114.89913 37832 ft 480 kts 176°
2026-04-27 06:04 -3.05521 114.90125 37831 ft 480 kts 176°
2026-04-27 06:05 -3.12196 114.90336 37832 ft 480 kts 176°
2026-04-27 06:05 -3.18881 114.90547 37831 ft 480 kts 176°
2026-04-27 06:06 -3.25559 114.90759 37827 ft 480 kts 176°
2026-04-27 06:06 -3.32239 114.90970 37832 ft 480 kts 176°
2026-04-27 06:07 -3.38916 114.91182 37827 ft 480 kts 176°
2026-04-27 06:07 -3.45585 114.91393 37834 ft 480 kts 176°
2026-04-27 06:08 -3.52233 114.91604 37833 ft 481 kts 177°
2026-04-27 06:08 -3.55441 114.91705 39494 ft 482 kts 178°
2026-04-27 06:08 -3.58772 114.91809 37718 ft 475 kts 177°
2026-04-27 06:09 -3.65392 114.92019 37830 ft 480 kts 176°
2026-04-27 06:09 -3.72128 114.92235 37833 ft 488 kts 176°
2026-04-27 06:10 -3.78924 114.92450 37822 ft 489 kts 177°
2026-04-27 06:10 -3.85731 114.92666 37815 ft 489 kts 177°
2026-04-27 06:11 -3.92521 114.92880 37815 ft 487 kts 177°
2026-04-27 06:11 -3.99292 114.93095 37818 ft 484 kts 177°
2026-04-27 06:12 -4.05971 114.93307 37816 ft 483 kts 177°
2026-04-27 06:12 -4.12673 114.93520 37816 ft 481 kts 177°
2026-04-27 06:13 -4.19367 114.93732 37816 ft 481 kts 176°
2026-04-27 06:13 -4.26050 114.93944 37814 ft 481 kts 176°
2026-04-27 06:14 -4.32744 114.94157 37818 ft 481 kts 176°
2026-04-27 06:14 -4.39440 114.94444 37818 ft 482 kts 175°
2026-04-27 06:15 -4.46136 114.94842 37819 ft 482 kts 175°
2026-04-27 06:15 -4.52847 114.95244 37807 ft 484 kts 175°
2026-04-27 06:16 -4.59599 114.95632 37823 ft 486 kts 175°
2026-04-27 06:16 -4.66329 114.96010 37821 ft 489 kts 175°
2026-04-27 06:17 -4.73141 114.96391 37823 ft 491 kts 175°
2026-04-27 06:17 -4.79969 114.96774 37816 ft 491 kts 175°
2026-04-27 06:18 -4.86813 114.97158 37807 ft 492 kts 175°
2026-04-27 06:18 -4.93612 114.97540 37820 ft 492 kts 175°
2026-04-27 06:19 -5.00457 114.97925 37814 ft 493 kts 175°
2026-04-27 06:19 -5.07308 114.98310 37816 ft 493 kts 175°
2026-04-27 06:20 -5.14164 114.98696 37813 ft 493 kts 175°
2026-04-27 06:20 -5.21014 114.99081 37811 ft 493 kts 175°
2026-04-27 06:21 -5.27861 114.99466 37810 ft 493 kts 175°
2026-04-27 06:21 -5.34704 114.99851 37812 ft 493 kts 175°
2026-04-27 06:22 -5.41512 115.00234 37816 ft 493 kts 175°
2026-04-27 06:22 -5.48362 115.00619 37818 ft 493 kts 175°
2026-04-27 06:23 -5.55214 115.01005 37815 ft 492 kts 175°
2026-04-27 06:23 -5.62050 115.01390 37808 ft 491 kts 175°
2026-04-27 06:24 -5.68858 115.01773 37805 ft 489 kts 175°
2026-04-27 06:24 -5.75656 115.02156 37810 ft 488 kts 175°
2026-04-27 06:25 -5.82392 115.02536 37805 ft 487 kts 175°
2026-04-27 06:25 -5.85767 115.02726 37681 ft 485 kts 175°
2026-04-27 06:25 -5.89139 115.02916 37268 ft 486 kts 175°
2026-04-27 06:26 -5.92531 115.03108 36817 ft 489 kts 175°
2026-04-27 06:26 -5.95943 115.03301 36363 ft 492 kts 175°
2026-04-27 06:26 -5.99369 115.03494 35921 ft 494 kts 175°
2026-04-27 06:26 -6.02813 115.03689 35496 ft 496 kts 175°
2026-04-27 06:27 -6.06266 115.03883 35072 ft 497 kts 175°
2026-04-27 06:27 -6.09722 115.04078 34647 ft 498 kts 175°
2026-04-27 06:27 -6.13187 115.04273 34212 ft 499 kts 175°
2026-04-27 06:27 -6.16616 115.04467 33766 ft 501 kts 175°
2026-04-27 06:28 -6.20110 115.04664 33233 ft 502 kts 175°
2026-04-27 06:28 -6.23600 115.04861 32667 ft 504 kts 175°
2026-04-27 06:28 -6.27113 115.05059 32052 ft 507 kts 175°
2026-04-27 06:28 -6.30648 115.05259 31442 ft 509 kts 175°
2026-04-27 06:29 -6.34191 115.05459 30842 ft 511 kts 175°
2026-04-27 06:29 -6.37749 115.05659 30230 ft 513 kts 175°
2026-04-27 06:29 -6.41315 115.05861 29755 ft 512 kts 175°
2026-04-27 06:29 -6.44862 115.06060 29368 ft 507 kts 175°
2026-04-27 06:30 -6.48371 115.06258 29031 ft 502 kts 175°
2026-04-27 06:30 -6.51846 115.06454 28660 ft 498 kts 175°
2026-04-27 06:30 -6.55302 115.06649 28260 ft 496 kts 175°
2026-04-27 06:30 -6.58733 115.06843 27616 ft 492 kts 175°
2026-04-27 06:31 -6.62140 115.07036 26952 ft 488 kts 175°
2026-04-27 06:31 -6.65478 115.07225 26304 ft 484 kts 175°
2026-04-27 06:31 -6.68867 115.07416 25646 ft 480 kts 175°
2026-04-27 06:31 -6.72146 115.07602 24986 ft 477 kts 175°
2026-04-27 06:32 -6.75450 115.07789 24337 ft 474 kts 175°
2026-04-27 06:32 -6.78746 115.07976 23688 ft 473 kts 175°
2026-04-27 06:32 -6.82015 115.08160 23062 ft 468 kts 175°
2026-04-27 06:32 -6.85240 115.08361 22635 ft 457 kts 174°
2026-04-27 06:33 -6.88363 115.08587 22450 ft 444 kts 174°
2026-04-27 06:33 -6.91430 115.08822 22275 ft 442 kts 174°
2026-04-27 06:33 -6.94532 115.09065 22105 ft 450 kts 174°
2026-04-27 06:33 -6.97673 115.09310 21930 ft 453 kts 174°
2026-04-27 06:34 -7.00811 115.09550 21739 ft 450 kts 174°
2026-04-27 06:34 -7.03928 115.09784 21547 ft 448 kts 174°
2026-04-27 06:34 -7.07032 115.10016 21375 ft 445 kts 174°
2026-04-27 06:34 -7.10073 115.10242 21193 ft 443 kts 174°
2026-04-27 06:35 -7.13138 115.10470 21020 ft 441 kts 174°
2026-04-27 06:35 -7.16195 115.10698 20847 ft 439 kts 174°
2026-04-27 06:35 -7.19250 115.10927 20668 ft 438 kts 174°
2026-04-27 06:35 -7.22288 115.11154 20489 ft 437 kts 174°
2026-04-27 06:36 -7.25321 115.11380 20321 ft 437 kts 174°
2026-04-27 06:36 -7.28351 115.11607 20140 ft 436 kts 174°
2026-04-27 06:36 -7.31384 115.11834 19978 ft 436 kts 173°
2026-04-27 06:36 -7.34406 115.12060 19797 ft 435 kts 174°
2026-04-27 06:37 -7.37429 115.12286 19631 ft 435 kts 174°
2026-04-27 06:37 -7.40446 115.12511 19442 ft 434 kts 174°
2026-04-27 06:37 -7.43459 115.12736 19272 ft 433 kts 174°
2026-04-27 06:37 -7.46428 115.12958 19101 ft 433 kts 174°
2026-04-27 06:38 -7.49428 115.13182 18926 ft 432 kts 174°
2026-04-27 06:38 -7.52416 115.13405 18749 ft 430 kts 174°
2026-04-27 06:38 -7.55402 115.13628 18579 ft 429 kts 174°
2026-04-27 06:38 -7.58374 115.13850 18411 ft 428 kts 173°
2026-04-27 06:39 -7.61344 115.14073 18237 ft 427 kts 173°
2026-04-27 06:39 -7.64312 115.14295 18058 ft 426 kts 173°
2026-04-27 06:39 -7.67267 115.14516 17863 ft 425 kts 173°
2026-04-27 06:39 -7.70219 115.14737 17679 ft 424 kts 173°
2026-04-27 06:40 -7.73157 115.14957 17496 ft 422 kts 173°
2026-04-27 06:40 -7.76082 115.15176 17330 ft 420 kts 173°
2026-04-27 06:40 -7.78988 115.15393 17155 ft 418 kts 173°
2026-04-27 06:40 -7.81890 115.15611 16990 ft 417 kts 173°
2026-04-27 06:41 -7.84757 115.15707 16801 ft 412 kts 183°
2026-04-27 06:41 -7.87522 115.14935 16663 ft 416 kts 204°
2026-04-27 06:41 -7.89933 115.13309 16504 ft 421 kts 220°
2026-04-27 06:41 -7.91829 115.11051 16336 ft 424 kts 234°
2026-04-27 06:42 -7.93484 115.08574 16171 ft 427 kts 235°
2026-04-27 06:42 -7.95114 115.06105 16005 ft 428 kts 235°
2026-04-27 06:42 -7.96772 115.03610 15820 ft 427 kts 234°
2026-04-27 06:42 -7.98431 115.01144 15661 ft 422 kts 234°
2026-04-27 06:43 -8.00078 114.98717 15464 ft 418 kts 234°
2026-04-27 06:43 -8.01723 114.96308 15307 ft 417 kts 233°
2026-04-27 06:43 -8.03367 114.93906 15148 ft 416 kts 233°
2026-04-27 06:43 -8.05011 114.91501 14976 ft 415 kts 233°
2026-04-27 06:44 -8.06649 114.89106 14901 ft 414 kts 233°
2026-04-27 06:44 -8.08288 114.86705 14605 ft 417 kts 233°
2026-04-27 06:44 -8.09926 114.84303 14293 ft 414 kts 233°
2026-04-27 06:44 -8.11551 114.81918 14044 ft 409 kts 233°
2026-04-27 06:45 -8.13157 114.79559 13784 ft 405 kts 233°
2026-04-27 06:45 -8.14750 114.77220 13523 ft 404 kts 233°
2026-04-27 06:45 -8.16340 114.74887 13244 ft 402 kts 233°
2026-04-27 06:45 -8.17922 114.72564 12996 ft 401 kts 233°
2026-04-27 06:46 -8.19498 114.70249 12736 ft 400 kts 233°
2026-04-27 06:46 -8.21052 114.67969 12472 ft 397 kts 233°
2026-04-27 06:46 -8.22631 114.65702 12320 ft 388 kts 229°
2026-04-27 06:46 -8.24625 114.63902 12115 ft 379 kts 207°
2026-04-27 06:47 -8.27009 114.63012 11943 ft 360 kts 187°
2026-04-27 06:47 -8.29471 114.62867 11588 ft 349 kts 174°
2026-04-27 06:47 -8.31832 114.63265 11209 ft 338 kts 159°
2026-04-27 06:47 -8.33986 114.64166 10898 ft 331 kts 153°
2026-04-27 06:48 -8.36075 114.65115 10564 ft 328 kts 153°
2026-04-27 06:48 -8.38147 114.66051 10226 ft 324 kts 154°
2026-04-27 06:48 -8.39506 114.66657 10033 ft 322 kts 154°
2026-04-27 06:48 -8.42199 114.67838 9740 ft 304 kts 154°
2026-04-27 06:49 -8.43460 114.68386 9516 ft 290 kts 154°
2026-04-27 06:49 -8.45849 114.69425 9026 ft 277 kts 154°
2026-04-27 06:49 -8.47622 114.70201 8734 ft 278 kts 154°
2026-04-27 06:49 -8.49401 114.70980 8458 ft 279 kts 154°
2026-04-27 06:50 -8.50606 114.71506 8286 ft 279 kts 155°
2026-04-27 06:50 -8.52967 114.72538 7921 ft 279 kts 155°
2026-04-27 06:50 -8.54168 114.73062 7733 ft 278 kts 155°
2026-04-27 06:50 -8.56354 114.74337 7366 ft 272 kts 140°
2026-04-27 06:51 -8.57316 114.75151 7188 ft 271 kts 137°
2026-04-27 06:51 -8.58725 114.76420 6944 ft 271 kts 137°
2026-04-27 06:51 -8.60131 114.77691 6685 ft 271 kts 137°
2026-04-27 06:51 -8.61538 114.78950 6425 ft 270 kts 137°
2026-04-27 06:52 -8.62952 114.80200 6141 ft 269 kts 137°
2026-04-27 06:52 -8.64359 114.81437 5868 ft 268 kts 137°
2026-04-27 06:52 -8.65763 114.82663 5616 ft 266 kts 138°
2026-04-27 06:52 -8.67161 114.83880 5348 ft 264 kts 138°
2026-04-27 06:53 -8.68550 114.85086 5084 ft 262 kts 138°
2026-04-27 06:53 -8.69927 114.86281 4832 ft 260 kts 138°
2026-04-27 06:53 -8.71290 114.87465 4599 ft 258 kts 137°
2026-04-27 06:53 -8.72650 114.88643 4343 ft 257 kts 138°
2026-04-27 06:54 -8.74010 114.89818 4077 ft 256 kts 137°
2026-04-27 06:54 -8.75133 114.91150 3800 ft 247 kts 113°
2026-04-27 06:54 -8.75502 114.92790 3633 ft 241 kts 91°
2026-04-27 06:54 -8.75502 114.94465 3394 ft 235 kts 90°
2026-04-27 06:55 -8.75506 114.96095 3179 ft 230 kts 90°
2026-04-27 06:55 -8.75514 114.97698 2984 ft 225 kts 90°
2026-04-27 06:55 -8.75521 114.99264 2754 ft 221 kts 90°
2026-04-27 06:55 -8.75478 115.00798 2529 ft 215 kts 88°
2026-04-27 06:56 -8.75414 115.02297 2298 ft 211 kts 88°
2026-04-27 06:56 -8.75352 115.03756 2068 ft 202 kts 88°
2026-04-27 06:56 -8.75296 115.05147 1868 ft 193 kts 88°
2026-04-27 06:56 -8.75243 115.06437 1744 ft 176 kts 89°
2026-04-27 06:57 -8.75194 115.07669 1522 ft 175 kts 90°
2026-04-27 06:57 -8.75146 115.08896 1255 ft 171 kts 90°
2026-04-27 06:57 -8.75101 115.10044 1023 ft 155 kts 89°
2026-04-27 06:57 -8.75060 115.11089 861 ft 147 kts 90°
2026-04-27 06:58 -8.75024 115.12126 733 ft 147 kts 90°
2026-04-27 06:58 -8.74914 115.14208 309 ft 144 kts 89°
2026-04-27 06:58 -8.74890 115.15211 118 ft 141 kts 92°
2026-04-27 06:59 -8.74863 115.16183 34 ft 134 kts 90°
2026-04-27 06:59 -8.74834 115.16970 33 ft 86 kts 88°
2026-04-27 06:59 -8.74814 115.17389 33 ft 41 kts 87°
2026-04-27 06:59 -8.74803 115.17644 33 ft 27 kts 87°
2026-04-27 07:00 -8.74796 115.17764 33 ft 10 kts 74°
2026-04-27 07:00 -8.74739 115.17791 35 ft 9 kts
2026-04-27 07:00 -8.74677 115.17790 37 ft 8 kts 358°
2026-04-27 07:00 -8.74637 115.17758 38 ft 8 kts 289°
2026-04-27 07:01 -8.74636 115.17698 38 ft 9 kts 266°
2026-04-27 07:01 -8.74640 115.17631 37 ft 10 kts 267°
2026-04-27 07:01 -8.74643 115.17557 37 ft 11 kts 267°
2026-04-27 07:01 -8.74647 115.17476 37 ft 12 kts 267°
2026-04-27 07:02 -8.74651 115.17394 37 ft 12 kts 268°
2026-04-27 07:02 -8.74654 115.17310 37 ft 12 kts 268°
2026-04-27 07:02 -8.74657 115.17222 37 ft 12 kts 267°
2026-04-27 07:02 -8.74661 115.17135 37 ft 12 kts 267°
2026-04-27 07:03 -8.74666 115.17048 37 ft 12 kts 267°
2026-04-27 07:03 -8.74670 115.16962 37 ft 12 kts 268°
2026-04-27 07:03 -8.74672 115.16910 37 ft 6 kts 268°
2026-04-27 07:03 -8.74666 115.16880 37 ft 2 kts 306°
2026-04-27 07:04 -8.74647 115.16873 37 ft 3 kts 347°
2026-04-27 07:04 -8.74622 115.16870 37 ft 4 kts 357°
2026-04-27 07:04 -8.74590 115.16869 38 ft 5 kts 358°
2026-04-27 07:04 -8.74562 115.16868 38 ft 3 kts 358°
2026-04-27 07:05 -8.74551 115.16868 38 ft 0 kts 358°
2026-04-27 07:05 -8.74549 115.16868 38 ft 1 kts 358°
2026-04-27 07:05 -8.74546 115.16868 38 ft 0 kts 358°
2026-04-27 07:05 -8.74545 115.16868 38 ft 0 kts 358°